Location: Capelle
(50.3413°N, 1.9974°E)
Time: 23:17:21
(UTC+00:00)

Cosmos 1943 - Pass Details

Date: 12 January 2026
Orbit: 830 x 850 km, 71.0° (Epoch: 7 February)

Event Time Altitude Azimuth Distance (km) Brightness Sun altitude
Rises 19:13:20 0° 237° (WSW) 3,378 7.2 -27.9°
Reaches altitude 10° 19:15:58 10° 246° (WSW) 2,450 6.4 -28.3°
Maximum altitude 19:21:06 36° 312° (NW) 1,320 4.5 -29.2°
Enters shadow 19:23:27 26° 356° (N) 1,625 4.7 -29.5°
